Time,TemperatureF,DewpointF,PressureIn,WindDirection,WindDirectionDegrees,WindSpeedMPH,WindSpeedGustMPH,Humidity,HourlyPrecipIn,Conditions,Clouds,dailyrainin,SoftwareType,DateUTC
2013-11-04 00:01:00,40.4,40.3,30.10,East,90,0.0,0.0,99,0.00,,,0.00,NetBSD+Arduino,2013-11-04 08:01:00,
2013-11-04 00:06:00,40.2,40.0,30.10,West,274,0.0,0.0,99,0.00,,,0.00,NetBSD+Arduino,2013-11-04 08:06:00,
2013-11-04 00:11:00,40.2,40.0,30.10,West,273,0.0,0.0,99,0.00,,,0.00,NetBSD+Arduino,2013-11-04 08:11:00,
2013-11-04 00:16:00,40.2,40.0,30.10,SW,225,0.0,0.0,99,0.00,,,0.00,NetBSD+Arduino,2013-11-04 08:16:00,
2013-11-04 00:21:00,40.1,40.0,30.10,South,180,0.0,1.5,99,0.00,,,0.00,NetBSD+Arduino,2013-11-04 08:21:00,
2013-11-04 00:26:00,40.0,40.0,30.10,West,272,0.0,0.0,99,0.00,,,0.00,NetBSD+Arduino,2013-11-04 08:26:00,
2013-11-04 00:31:00,40.0,39.9,30.10,West,273,0.0,0.0,99,0.00,,,0.00,NetBSD+Arduino,2013-11-04 08:31:00,
2013-11-04 00:36:00,39.9,39.9,30.11,West,273,0.0,0.0,100,0.00,,,0.00,NetBSD+Arduino,2013-11-04 08:36:00,
2013-11-04 00:41:00,39.9,39.9,30.10,South,180,0.0,0.0,100,0.00,,,0.00,NetBSD+Arduino,2013-11-04 08:41:00,
2013-11-04 00:46:00,39.9,39.9,30.11,South,180,0.0,0.0,100,0.00,,,0.00,NetBSD+Arduino,2013-11-04 08:46:00,
2013-11-04 00:51:00,40.0,40.0,30.10,West,274,0.0,1.5,100,0.00,,,0.00,NetBSD+Arduino,2013-11-04 08:51:00,
2013-11-04 00:56:00,39.9,39.9,30.10,South,180,0.0,1.5,100,0.00,,,0.00,NetBSD+Arduino,2013-11-04 08:56:00,
2013-11-04 01:01:00,39.7,39.7,30.10,West,274,0.0,0.0,100,0.00,,,0.00,NetBSD+Arduino,2013-11-04 09:01:00,
2013-11-04 01:06:00,39.5,39.5,30.10,West,273,0.0,0.0,100,0.00,,,0.00,NetBSD+Arduino,2013-11-04 09:06:00,
2013-11-04 01:11:00,39.5,39.5,30.11,West,274,0.0,0.0,100,0.00,,,0.00,NetBSD+Arduino,2013-11-04 09:11:00,
2013-11-04 01:16:00,39.3,39.3,30.10,East,90,0.0,0.0,100,0.00,,,0.00,NetBSD+Arduino,2013-11-04 09:16:00,
2013-11-04 01:21:00,39.5,39.5,30.10,West,274,0.0,0.0,100,0.00,,,0.00,NetBSD+Arduino,2013-11-04 09:21:00,
2013-11-04 01:26:00,39.3,39.3,30.10,East,90,0.0,0.0,100,0.00,,,0.00,NetBSD+Arduino,2013-11-04 09:26:00,
2013-11-04 01:31:00,39.2,39.2,30.10,NE,45,0.0,0.0,100,0.00,,,0.00,NetBSD+Arduino,2013-11-04 09:31:00,
2013-11-04 01:36:00,39.2,39.2,30.11,NE,45,0.0,0.0,100,0.00,,,0.00,NetBSD+Arduino,2013-11-04 09:36:00,
2013-11-04 01:41:00,39.0,39.0,30.12,NE,45,0.0,0.0,100,0.00,,,0.00,NetBSD+Arduino,2013-11-04 09:41:00,
2013-11-04 01:46:00,39.0,39.0,30.11,NE,45,0.0,0.0,100,0.00,,,0.00,NetBSD+Arduino,2013-11-04 09:46:00,
2013-11-04 01:51:00,39.0,39.0,30.11,NE,45,0.0,0.0,100,0.00,,,0.00,NetBSD+Arduino,2013-11-04 09:51:00,
2013-11-04 01:56:00,38.7,38.7,30.12,NE,45,1.0,1.5,100,0.00,,,0.00,NetBSD+Arduino,2013-11-04 09:56:00,
2013-11-04 02:01:00,38.6,38.6,30.12,NE,45,1.5,3.0,100,0.00,,,0.00,NetBSD+Arduino,2013-11-04 10:01:00,
2013-11-04 02:06:00,38.7,38.7,30.12,NE,45,0.5,3.0,100,0.00,,,0.00,NetBSD+Arduino,2013-11-04 10:06:00,
2013-11-04 02:11:00,38.8,38.8,30.12,NE,45,0.0,3.0,100,0.00,,,0.00,NetBSD+Arduino,2013-11-04 10:11:00,
2013-11-04 02:16:00,38.8,38.8,30.12,NE,45,0.0,0.0,100,0.00,,,0.00,NetBSD+Arduino,2013-11-04 10:16:00,
2013-11-04 02:21:00,38.7,38.7,30.12,North,0,1.0,3.0,100,0.00,,,0.00,NetBSD+Arduino,2013-11-04 10:21:00,
2013-11-04 02:26:00,38.7,38.7,30.12,NE,45,1.0,3.0,100,0.00,,,0.00,NetBSD+Arduino,2013-11-04 10:26:00,
2013-11-04 02:31:00,38.9,38.9,30.12,NE,45,1.5,3.0,100,0.00,,,0.00,NetBSD+Arduino,2013-11-04 10:31:00,
2013-11-04 02:36:00,39.0,39.0,30.12,NE,45,0.0,3.0,100,0.00,,,0.00,NetBSD+Arduino,2013-11-04 10:36:00,
2013-11-04 02:41:00,39.0,39.0,30.12,West,268,1.5,1.5,100,0.00,,,0.00,NetBSD+Arduino,2013-11-04 10:41:00,
2013-11-04 02:46:00,38.9,38.9,30.12,NE,45,0.0,1.5,100,0.00,,,0.00,NetBSD+Arduino,2013-11-04 10:46:00,
2013-11-04 02:52:00,38.7,38.7,30.12,NE,45,0.7,1.5,100,0.00,,,0.00,NetBSD+Arduino,2013-11-04 10:52:00,
2013-11-04 02:57:00,38.9,38.9,30.13,NE,45,1.1,3.0,100,0.00,,,0.00,NetBSD+Arduino,2013-11-04 10:57:00,
2013-11-04 03:02:00,38.9,38.9,30.12,NE,45,0.0,3.0,100,0.00,,,0.00,NetBSD+Arduino,2013-11-04 11:02:00,
2013-11-04 03:08:00,39.0,39.0,30.12,North,0,0.0,1.5,100,0.00,,,0.00,NetBSD+Arduino,2013-11-04 11:08:00,
2013-11-04 03:13:00,39.0,39.0,30.12,North,0,0.0,3.0,100,0.00,,,0.00,NetBSD+Arduino,2013-11-04 11:13:00,
2013-11-04 03:18:00,39.0,39.0,30.12,North,0,0.0,0.0,100,0.00,,,0.00,NetBSD+Arduino,2013-11-04 11:18:00,
2013-11-04 03:24:00,38.9,38.9,30.12,North,0,0.0,0.0,100,0.00,,,0.00,NetBSD+Arduino,2013-11-04 11:24:00,
2013-11-04 03:26:00,38.9,38.9,30.12,North,0,0.0,0.0,100,0.00,,,0.00,NetBSD+Arduino,2013-11-04 11:26:00,
2013-11-04 03:31:00,38.7,38.7,30.12,North,0,1.0,1.5,100,0.00,,,0.00,NetBSD+Arduino,2013-11-04 11:31:00,
2013-11-04 03:36:00,38.6,38.6,30.12,NE,45,0.0,3.0,100,0.00,,,0.00,NetBSD+Arduino,2013-11-04 11:36:00,
2013-11-04 03:41:00,38.5,38.5,30.12,South,180,0.0,0.0,100,0.00,,,0.00,NetBSD+Arduino,2013-11-04 11:41:00,
2013-11-04 03:46:00,38.4,38.4,30.12,NE,45,1.0,3.0,100,0.00,,,0.00,NetBSD+Arduino,2013-11-04 11:46:00,
2013-11-04 03:51:00,38.4,38.4,30.12,NE,45,0.0,1.5,100,0.00,,,0.00,NetBSD+Arduino,2013-11-04 11:51:00,
2013-11-04 03:56:00,38.3,38.3,30.12,South,180,0.0,0.0,100,0.00,,,0.00,NetBSD+Arduino,2013-11-04 11:56:00,
2013-11-04 04:01:00,38.3,38.3,30.12,West,270,0.0,1.5,100,0.00,,,0.00,NetBSD+Arduino,2013-11-04 12:01:00,
2013-11-04 04:06:00,38.2,38.2,30.13,NE,45,0.0,1.5,100,0.00,,,0.00,NetBSD+Arduino,2013-11-04 12:06:00,
2013-11-04 04:11:00,38.2,38.2,30.12,West,272,0.0,1.5,100,0.00,,,0.00,NetBSD+Arduino,2013-11-04 12:11:00,
2013-11-04 04:16:00,38.0,38.0,30.13,NE,45,1.1,3.0,100,0.00,,,0.00,NetBSD+Arduino,2013-11-04 12:16:00,
2013-11-04 04:21:00,38.0,38.0,30.13,NE,45,1.0,3.0,100,0.00,,,0.00,NetBSD+Arduino,2013-11-04 12:21:00,
2013-11-04 04:26:00,38.2,38.2,30.13,North,0,0.0,1.5,100,0.00,,,0.00,NetBSD+Arduino,2013-11-04 12:26:00,
2013-11-04 04:31:00,38.2,38.2,30.13,NW,315,0.0,3.0,100,0.00,,,0.00,NetBSD+Arduino,2013-11-04 12:31:00,
2013-11-04 04:36:00,38.2,38.2,30.14,NW,315,0.0,1.5,100,0.00,,,0.00,NetBSD+Arduino,2013-11-04 12:36:00,
2013-11-04 04:41:00,38.0,38.0,30.14,North,0,0.0,3.0,100,0.00,,,0.00,NetBSD+Arduino,2013-11-04 12:41:00,
2013-11-04 04:46:00,37.9,37.9,30.14,North,0,1.7,3.0,100,0.00,,,0.00,NetBSD+Arduino,2013-11-04 12:46:00,
2013-11-04 04:51:00,37.8,37.8,30.15,NE,45,1.8,3.0,100,0.00,,,0.00,NetBSD+Arduino,2013-11-04 12:51:00,
2013-11-04 04:56:00,37.6,37.6,30.15,North,0,0.0,3.0,100,0.00,,,0.00,NetBSD+Arduino,2013-11-04 12:56:00,
2013-11-04 05:01:00,37.4,37.4,30.15,North,0,0.0,0.0,100,0.00,,,0.00,NetBSD+Arduino,2013-11-04 13:01:00,
2013-11-04 05:06:00,37.3,37.3,30.15,NE,45,0.0,0.0,100,0.00,,,0.00,NetBSD+Arduino,2013-11-04 13:06:00,
2013-11-04 05:11:00,37.2,37.2,30.15,NE,45,0.0,0.0,100,0.00,,,0.00,NetBSD+Arduino,2013-11-04 13:11:00,
2013-11-04 05:16:00,37.0,37.0,30.15,North,0,0.0,0.0,100,0.00,,,0.00,NetBSD+Arduino,2013-11-04 13:16:00,
2013-11-04 05:21:00,37.0,37.0,30.15,NW,315,0.0,0.0,100,0.00,,,0.00,NetBSD+Arduino,2013-11-04 13:21:00,
2013-11-04 05:26:00,36.9,36.9,30.15,North,0,0.3,1.5,100,0.00,,,0.00,NetBSD+Arduino,2013-11-04 13:26:00,
2013-11-04 05:31:00,36.7,36.7,30.15,North,0,0.9,3.0,100,0.00,,,0.00,NetBSD+Arduino,2013-11-04 13:31:00,
2013-11-04 05:36:00,36.7,36.7,30.15,NW,315,0.0,3.0,100,0.00,,,0.00,NetBSD+Arduino,2013-11-04 13:36:00,
2013-11-04 05:41:00,36.9,36.9,30.15,NW,315,0.0,0.0,100,0.00,,,0.00,NetBSD+Arduino,2013-11-04 13:41:00,
2013-11-04 05:46:00,36.7,36.7,30.15,North,0,0.0,0.0,100,0.00,,,0.00,NetBSD+Arduino,2013-11-04 13:46:00,
2013-11-04 05:51:00,36.7,36.7,30.15,North,0,0.0,0.0,100,0.00,,,0.00,NetBSD+Arduino,2013-11-04 13:51:00,
2013-11-04 05:56:00,36.9,36.9,30.15,NE,45,0.6,3.0,100,0.00,,,0.00,NetBSD+Arduino,2013-11-04 13:56:00,
2013-11-04 06:07:00,36.7,36.7,30.15,North,0,1.2,3.0,100,0.00,,,0.00,NetBSD+Arduino,2013-11-04 14:07:00,
2013-11-04 06:12:00,36.7,36.7,30.15,North,0,0.0,3.0,100,0.00,,,0.00,NetBSD+Arduino,2013-11-04 14:12:00,
2013-11-04 06:17:00,36.9,36.9,30.15,West,271,0.0,0.0,100,0.00,,,0.00,NetBSD+Arduino,2013-11-04 14:17:00,
2013-11-04 06:22:00,36.9,36.9,30.15,NE,45,0.0,1.5,100,0.00,,,0.00,NetBSD+Arduino,2013-11-04 14:22:00,
2013-11-04 06:27:00,37.0,37.0,30.15,North,0,0.0,0.0,100,0.00,,,0.00,NetBSD+Arduino,2013-11-04 14:27:00,
2013-11-04 06:32:00,37.2,37.2,30.15,North,0,0.0,0.0,100,0.00,,,0.00,NetBSD+Arduino,2013-11-04 14:32:00,
2013-11-04 06:37:00,37.3,37.3,30.15,North,0,0.0,0.0,100,0.00,,,0.00,NetBSD+Arduino,2013-11-04 14:37:00,
2013-11-04 06:42:00,37.4,37.4,30.15,SW,225,0.0,0.0,100,0.00,,,0.00,NetBSD+Arduino,2013-11-04 14:42:00,
2013-11-04 06:47:00,37.7,37.7,30.16,South,180,0.0,0.0,100,0.00,,,0.00,NetBSD+Arduino,2013-11-04 14:47:00,
2013-11-04 06:52:00,37.8,37.8,30.16,SW,225,0.0,0.0,100,0.00,,,0.00,NetBSD+Arduino,2013-11-04 14:52:00,
2013-11-04 06:57:00,38.1,38.1,30.16,South,180,0.0,3.0,100,0.00,,,0.00,NetBSD+Arduino,2013-11-04 14:57:00,
2013-11-04 07:02:00,38.4,38.4,30.16,NE,45,2.1,3.0,100,0.00,,,0.00,NetBSD+Arduino,2013-11-04 15:02:00,
2013-11-04 07:07:00,38.2,38.2,30.16,North,0,0.0,3.0,100,0.00,,,0.00,NetBSD+Arduino,2013-11-04 15:07:00,
2013-11-04 07:12:00,38.2,38.2,30.16,NE,45,0.0,3.0,100,0.00,,,0.00,NetBSD+Arduino,2013-11-04 15:12:00,
2013-11-04 07:17:00,38.1,38.1,30.16,NE,45,0.0,4.5,100,0.00,,,0.00,NetBSD+Arduino,2013-11-04 15:17:00,
2013-11-04 07:22:00,37.9,37.9,30.16,North,0,0.0,3.0,100,0.00,,,0.00,NetBSD+Arduino,2013-11-04 15:22:00,
2013-11-04 07:27:00,37.7,37.7,30.16,NE,45,0.3,1.5,100,0.00,,,0.00,NetBSD+Arduino,2013-11-04 15:27:00,
2013-11-04 07:32:00,37.9,37.9,30.16,NE,45,0.3,3.0,100,0.00,,,0.00,NetBSD+Arduino,2013-11-04 15:32:00,
2013-11-04 07:37:00,37.9,37.9,30.17,NE,45,0.0,3.0,100,0.00,,,0.00,NetBSD+Arduino,2013-11-04 15:37:00,
2013-11-04 07:42:00,37.9,37.9,30.17,North,0,0.0,0.0,100,0.00,,,0.00,NetBSD+Arduino,2013-11-04 15:42:00,
2013-11-04 07:47:00,38.0,38.0,30.17,NE,45,0.0,3.0,100,0.00,,,0.00,NetBSD+Arduino,2013-11-04 15:47:00,
2013-11-04 07:52:00,38.2,38.2,30.17,NE,45,0.0,0.0,100,0.00,,,0.00,NetBSD+Arduino,2013-11-04 15:52:00,
2013-11-04 07:57:00,38.4,38.4,30.17,East,90,0.0,1.5,100,0.00,,,0.00,NetBSD+Arduino,2013-11-04 15:57:00,
2013-11-04 08:03:00,38.6,38.6,30.17,East,90,0.0,1.5,100,0.00,,,0.00,NetBSD+Arduino,2013-11-04 16:03:00,
2013-11-04 08:08:00,38.7,38.7,30.17,East,90,0.0,0.0,100,0.00,,,0.00,NetBSD+Arduino,2013-11-04 16:08:00,
2013-11-04 08:13:00,39.1,39.1,30.17,East,90,0.0,0.0,100,0.00,,,0.00,NetBSD+Arduino,2013-11-04 16:13:00,
2013-11-04 08:18:00,39.2,39.2,30.17,East,90,0.0,0.0,100,0.00,,,0.00,NetBSD+Arduino,2013-11-04 16:18:00,
2013-11-04 08:23:00,39.5,39.5,30.17,West,274,0.0,0.0,100,0.00,,,0.00,NetBSD+Arduino,2013-11-04 16:23:00,
2013-11-04 08:28:00,39.6,39.6,30.17,West,273,0.6,3.0,100,0.00,,,0.00,NetBSD+Arduino,2013-11-04 16:28:00,
2013-11-04 08:33:00,39.7,39.7,30.17,West,274,0.0,3.0,100,0.00,,,0.00,NetBSD+Arduino,2013-11-04 16:33:00,
2013-11-04 08:38:00,39.7,39.7,30.17,NE,45,1.5,3.0,100,0.00,,,0.00,NetBSD+Arduino,2013-11-04 16:38:00,
2013-11-04 08:43:00,39.7,39.7,30.17,East,90,0.0,3.0,100,0.00,,,0.00,NetBSD+Arduino,2013-11-04 16:43:00,
2013-11-04 08:48:00,39.8,39.8,30.17,NE,45,0.0,1.5,100,0.00,,,0.00,NetBSD+Arduino,2013-11-04 16:48:00,
2013-11-04 08:53:00,39.7,39.7,30.17,South,180,0.9,4.5,100,0.00,,,0.00,NetBSD+Arduino,2013-11-04 16:53:00,
2013-11-04 08:58:00,40.1,40.1,30.17,West,274,0.0,3.0,100,0.00,,,0.00,NetBSD+Arduino,2013-11-04 16:58:00,
2013-11-04 09:03:00,40.5,40.5,30.17,NW,315,0.0,3.0,100,0.00,,,0.00,NetBSD+Arduino,2013-11-04 17:03:00,
2013-11-04 09:08:00,41.0,41.0,30.18,North,0,0.0,1.5,100,0.00,,,0.00,NetBSD+Arduino,2013-11-04 17:08:00,
2013-11-04 09:13:00,41.4,41.4,30.17,West,274,0.0,1.5,100,0.00,,,0.00,NetBSD+Arduino,2013-11-04 17:13:00,
2013-11-04 09:18:00,41.2,41.0,30.17,West,274,2.1,4.5,98,0.00,,,0.00,NetBSD+Arduino,2013-11-04 17:18:00,
2013-11-04 09:23:00,41.0,40.3,30.18,NE,45,0.0,3.0,97,0.00,,,0.00,NetBSD+Arduino,2013-11-04 17:23:00,
2013-11-04 09:28:00,41.5,40.8,30.18,NE,45,0.0,3.0,97,0.00,,,0.00,NetBSD+Arduino,2013-11-04 17:28:00,
2013-11-04 09:33:00,41.7,41.0,30.18,South,180,0.5,1.5,97,0.00,,,0.00,NetBSD+Arduino,2013-11-04 17:33:00,
2013-11-04 09:38:00,42.0,41.2,30.18,SW,225,0.0,1.5,96,0.00,,,0.00,NetBSD+Arduino,2013-11-04 17:38:00,
2013-11-04 09:43:00,42.3,40.8,30.18,East,90,1.5,1.5,94,0.00,,,0.00,NetBSD+Arduino,2013-11-04 17:43:00,
2013-11-04 09:48:00,42.3,40.8,30.17,East,90,1.5,3.0,94,0.00,,,0.00,NetBSD+Arduino,2013-11-04 17:48:00,
2013-11-04 09:53:00,42.7,40.9,30.18,North,0,0.0,4.5,93,0.00,,,0.00,NetBSD+Arduino,2013-11-04 17:53:00,
2013-11-04 09:58:00,42.8,40.9,30.18,East,90,1.8,3.0,92,0.00,,,0.00,NetBSD+Arduino,2013-11-04 17:58:00,
2013-11-04 10:03:00,43.8,40.9,30.18,NE,45,1.5,3.0,89,0.00,,,0.00,NetBSD+Arduino,2013-11-04 18:03:00,
2013-11-04 10:08:00,44.2,41.2,30.18,SW,225,2.7,6.0,88,0.00,,,0.00,NetBSD+Arduino,2013-11-04 18:08:00,
2013-11-04 10:13:00,44.2,41.4,30.18,SW,225,3.2,4.5,89,0.00,,,0.00,NetBSD+Arduino,2013-11-04 18:13:00,
2013-11-04 10:18:00,44.7,41.1,30.19,SW,225,0.9,6.0,86,0.00,,,0.00,NetBSD+Arduino,2013-11-04 18:18:00,
2013-11-04 10:23:00,45.1,41.5,30.19,South,180,2.4,4.5,87,0.00,,,0.00,NetBSD+Arduino,2013-11-04 18:23:00,
2013-11-04 10:28:00,45.4,41.1,30.19,East,90,0.5,4.5,84,0.00,,,0.00,NetBSD+Arduino,2013-11-04 18:28:00,
2013-11-04 10:33:00,45.9,41.6,30.19,East,90,0.0,4.5,85,0.00,,,0.00,NetBSD+Arduino,2013-11-04 18:33:00,
2013-11-04 10:38:00,46.0,41.4,30.19,SW,225,3.0,6.0,83,0.00,,,0.00,NetBSD+Arduino,2013-11-04 18:38:00,
2013-11-04 10:43:00,47.7,43.4,30.19,North,0,1.7,4.5,85,0.00,,,0.00,NetBSD+Arduino,2013-11-04 18:43:00,
2013-11-04 10:48:00,48.2,41.8,30.19,SW,225,1.8,7.5,78,0.00,,,0.00,NetBSD+Arduino,2013-11-04 18:48:00,
2013-11-04 10:53:00,47.7,41.8,30.19,South,180,3.2,7.5,80,0.00,,,0.00,NetBSD+Arduino,2013-11-04 18:53:00,
2013-11-04 10:58:00,47.2,41.2,30.19,South,180,2.7,6.0,79,0.00,,,0.00,NetBSD+Arduino,2013-11-04 18:58:00,
2013-11-04 11:03:00,47.4,41.0,30.19,SW,225,2.7,6.0,78,0.00,,,0.00,NetBSD+Arduino,2013-11-04 19:03:00,
2013-11-04 11:08:00,47.1,41.2,30.19,South,180,2.5,6.0,80,0.00,,,0.00,NetBSD+Arduino,2013-11-04 19:08:00,
2013-11-04 11:13:00,47.2,41.5,30.19,South,180,2.7,6.0,80,0.00,,,0.00,NetBSD+Arduino,2013-11-04 19:13:00,
2013-11-04 11:18:00,47.2,40.8,30.19,NE,45,2.0,4.5,78,0.00,,,0.00,NetBSD+Arduino,2013-11-04 19:18:00,
2013-11-04 11:23:00,47.4,41.3,30.19,SW,225,4.7,6.0,79,0.00,,,0.00,NetBSD+Arduino,2013-11-04 19:23:00,
2013-11-04 11:28:00,47.7,40.7,30.19,South,180,3.2,6.0,76,0.00,,,0.00,NetBSD+Arduino,2013-11-04 19:28:00,
2013-11-04 11:33:00,47.4,40.3,30.18,SW,225,0.0,6.0,76,0.00,,,0.00,NetBSD+Arduino,2013-11-04 19:33:00,
2013-11-04 11:38:00,48.2,41.3,30.17,East,90,0.0,6.0,76,0.00,,,0.00,NetBSD+Arduino,2013-11-04 19:38:00,
2013-11-04 11:43:00,48.4,40.7,30.17,SW,225,2.5,6.0,74,0.00,,,0.00,NetBSD+Arduino,2013-11-04 19:43:00,
2013-11-04 11:48:00,48.0,40.7,30.17,South,180,6.5,7.5,75,0.00,,,0.00,NetBSD+Arduino,2013-11-04 19:48:00,
2013-11-04 11:53:00,48.1,39.3,30.17,SW,225,2.0,7.5,71,0.00,,,0.00,NetBSD+Arduino,2013-11-04 19:53:00,
2013-11-04 11:58:00,48.1,38.8,30.18,SW,225,0.0,6.0,70,0.00,,,0.00,NetBSD+Arduino,2013-11-04 19:58:00,
2013-11-04 12:03:00,48.1,39.3,30.17,South,180,4.5,6.0,71,0.00,,,0.00,NetBSD+Arduino,2013-11-04 20:03:00,
2013-11-04 12:08:00,47.5,38.4,30.17,SW,225,3.2,6.0,70,0.00,,,0.00,NetBSD+Arduino,2013-11-04 20:08:00,
2013-11-04 12:13:00,48.0,39.3,30.17,NE,45,1.0,4.5,71,0.00,,,0.00,NetBSD+Arduino,2013-11-04 20:13:00,
2013-11-04 12:18:00,48.4,38.7,30.17,East,90,3.5,7.5,69,0.00,,,0.00,NetBSD+Arduino,2013-11-04 20:18:00,
2013-11-04 12:23:00,48.0,37.3,30.17,South,180,3.5,7.5,66,0.00,,,0.00,NetBSD+Arduino,2013-11-04 20:23:00,
2013-11-04 12:28:00,48.0,37.2,30.17,SW,225,0.0,6.0,65,0.00,,,0.00,NetBSD+Arduino,2013-11-04 20:28:00,
2013-11-04 12:33:00,48.0,37.7,30.17,SW,225,3.7,7.5,67,0.00,,,0.00,NetBSD+Arduino,2013-11-04 20:33:00,
2013-11-04 12:38:00,48.2,38.1,30.16,SW,225,6.0,7.5,67,0.00,,,0.00,NetBSD+Arduino,2013-11-04 20:38:00,
2013-11-04 12:43:00,48.2,37.7,30.15,South,180,5.0,7.5,66,0.00,,,0.00,NetBSD+Arduino,2013-11-04 20:43:00,
2013-11-04 12:48:00,48.2,37.9,30.15,SW,225,4.0,7.5,67,0.00,,,0.00,NetBSD+Arduino,2013-11-04 20:48:00,
2013-11-04 12:54:00,47.9,36.3,30.16,SW,225,3.0,6.0,64,0.00,,,0.00,NetBSD+Arduino,2013-11-04 20:54:00,
2013-11-04 12:59:00,48.0,35.7,30.16,East,90,2.5,4.5,62,0.00,,,0.00,NetBSD+Arduino,2013-11-04 20:59:00,
2013-11-04 13:04:00,48.0,33.3,30.16,East,90,1.7,4.5,56,0.00,,,0.00,NetBSD+Arduino,2013-11-04 21:04:00,
2013-11-04 13:09:00,48.4,35.1,30.16,SW,225,1.0,4.5,59,0.00,,,0.00,NetBSD+Arduino,2013-11-04 21:09:00,
2013-11-04 13:14:00,48.5,34.0,30.16,SW,225,0.0,4.5,57,0.00,,,0.00,NetBSD+Arduino,2013-11-04 21:14:00,
2013-11-04 13:19:00,48.2,33.7,30.16,South,180,2.5,4.5,57,0.00,,,0.00,NetBSD+Arduino,2013-11-04 21:19:00,
2013-11-04 13:24:00,48.4,33.2,30.15,East,90,1.2,3.0,55,0.00,,,0.00,NetBSD+Arduino,2013-11-04 21:24:00,
2013-11-04 13:30:00,48.6,34.3,30.15,SW,225,0.5,4.5,57,0.00,,,0.00,NetBSD+Arduino,2013-11-04 21:30:00,
2013-11-04 13:36:00,48.7,33.7,30.15,South,180,1.5,4.5,56,0.00,,,0.00,NetBSD+Arduino,2013-11-04 21:36:00,
2013-11-04 13:41:00,48.5,34.4,30.15,East,90,0.0,4.5,58,0.00,,,0.00,NetBSD+Arduino,2013-11-04 21:41:00,
2013-11-04 13:46:00,48.5,33.7,30.15,SW,225,1.2,4.5,56,0.00,,,0.00,NetBSD+Arduino,2013-11-04 21:46:00,
2013-11-04 13:51:00,48.2,31.6,30.15,South,180,0.4,6.0,52,0.00,,,0.00,NetBSD+Arduino,2013-11-04 21:51:00,
2013-11-04 13:56:00,48.2,33.7,30.15,South,180,0.9,4.5,57,0.00,,,0.00,NetBSD+Arduino,2013-11-04 21:56:00,
2013-11-04 14:01:00,48.1,33.6,30.14,South,180,3.2,6.0,57,0.00,,,0.00,NetBSD+Arduino,2013-11-04 22:01:00,
2013-11-04 14:07:00,47.9,34.4,30.13,SW,225,2.2,6.0,59,0.00,,,0.00,NetBSD+Arduino,2013-11-04 22:07:00,
2013-11-04 14:12:00,48.0,35.3,30.13,SW,225,4.0,6.0,61,0.00,,,0.00,NetBSD+Arduino,2013-11-04 22:12:00,
2013-11-04 14:17:00,47.8,35.5,30.13,South,180,0.6,7.5,62,0.00,,,0.00,NetBSD+Arduino,2013-11-04 22:17:00,
2013-11-04 14:22:00,47.7,35.3,30.13,South,180,1.8,6.0,62,0.00,,,0.00,NetBSD+Arduino,2013-11-04 22:22:00,
2013-11-04 14:27:00,47.5,35.2,30.14,East,90,0.0,3.0,62,0.00,,,0.00,NetBSD+Arduino,2013-11-04 22:27:00,
2013-11-04 14:32:00,47.7,35.5,30.15,South,180,1.2,3.0,62,0.00,,,0.00,NetBSD+Arduino,2013-11-04 22:32:00,
2013-11-04 14:37:00,47.8,36.2,30.14,South,180,0.9,3.0,64,0.00,,,0.00,NetBSD+Arduino,2013-11-04 22:37:00,
2013-11-04 14:42:00,47.8,36.0,30.14,East,90,3.0,4.5,63,0.00,,,0.00,NetBSD+Arduino,2013-11-04 22:42:00,
2013-11-04 14:47:00,47.7,36.3,30.13,South,180,0.9,4.5,64,0.00,,,0.00,NetBSD+Arduino,2013-11-04 22:47:00,
2013-11-04 14:52:00,47.9,36.5,30.14,East,90,2.1,4.5,64,0.00,,,0.00,NetBSD+Arduino,2013-11-04 22:52:00,
2013-11-04 14:57:00,47.9,35.6,30.15,SE,135,0.0,3.0,62,0.00,,,0.00,NetBSD+Arduino,2013-11-04 22:57:00,
2013-11-04 15:02:00,47.8,35.3,30.15,SW,225,1.5,4.5,61,0.00,,,0.00,NetBSD+Arduino,2013-11-04 23:02:00,
2013-11-04 15:07:00,47.7,35.3,30.14,South,180,1.8,4.5,62,0.00,,,0.00,NetBSD+Arduino,2013-11-04 23:07:00,
2013-11-04 15:12:00,47.7,35.9,30.14,South,180,0.0,4.5,63,0.00,,,0.00,NetBSD+Arduino,2013-11-04 23:12:00,
2013-11-04 15:17:00,47.7,36.2,30.14,East,90,0.5,3.0,64,0.00,,,0.00,NetBSD+Arduino,2013-11-04 23:17:00,
2013-11-04 15:22:00,47.7,36.3,30.14,SW,225,1.2,3.0,64,0.00,,,0.00,NetBSD+Arduino,2013-11-04 23:22:00,
2013-11-04 15:27:00,47.7,36.0,30.14,South,180,1.2,3.0,63,0.00,,,0.00,NetBSD+Arduino,2013-11-04 23:27:00,
2013-11-04 15:32:00,47.6,35.8,30.14,South,180,2.1,4.5,63,0.00,,,0.00,NetBSD+Arduino,2013-11-04 23:32:00,
2013-11-04 15:37:00,47.4,36.2,30.14,South,180,1.2,3.0,64,0.00,,,0.00,NetBSD+Arduino,2013-11-04 23:37:00,
2013-11-04 15:42:00,47.2,36.0,30.14,South,180,1.2,3.0,64,0.00,,,0.00,NetBSD+Arduino,2013-11-04 23:42:00,
2013-11-04 15:47:00,47.3,35.7,30.14,South,180,2.7,3.0,64,0.00,,,0.00,NetBSD+Arduino,2013-11-04 23:47:00,
2013-11-04 15:52:00,47.2,36.6,30.14,South,180,1.5,4.5,66,0.00,,,0.00,NetBSD+Arduino,2013-11-04 23:52:00,
2013-11-04 15:57:00,47.1,36.6,30.14,South,180,2.2,4.5,66,0.00,,,0.00,NetBSD+Arduino,2013-11-04 23:57:00,
2013-11-04 16:02:00,47.1,37.1,30.14,South,180,2.4,4.5,68,0.00,,,0.00,NetBSD+Arduino,2013-11-05 00:02:00,
2013-11-04 16:07:00,47.1,36.9,30.13,NE,45,0.0,4.5,67,0.00,,,0.00,NetBSD+Arduino,2013-11-05 00:07:00,
2013-11-04 16:12:00,47.1,36.4,30.13,SE,135,0.0,0.0,66,0.00,,,0.00,NetBSD+Arduino,2013-11-05 00:12:00,
2013-11-04 16:17:00,46.9,36.8,30.13,South,180,1.2,3.0,67,0.00,,,0.00,NetBSD+Arduino,2013-11-05 00:17:00,
2013-11-04 16:22:00,46.9,36.4,30.13,SW,225,0.6,3.0,66,0.00,,,0.00,NetBSD+Arduino,2013-11-05 00:22:00,
2013-11-04 16:27:00,46.8,36.8,30.13,South,180,1.2,3.0,68,0.00,,,0.00,NetBSD+Arduino,2013-11-05 00:27:00,
2013-11-04 16:32:00,46.7,36.7,30.13,SW,225,0.0,3.0,68,0.00,,,0.00,NetBSD+Arduino,2013-11-05 00:32:00,
2013-11-04 16:37:00,46.4,36.9,30.13,East,90,0.0,3.0,69,0.00,,,0.00,NetBSD+Arduino,2013-11-05 00:37:00,
2013-11-04 16:42:00,46.4,37.4,30.13,NE,45,0.9,1.5,70,0.00,,,0.00,NetBSD+Arduino,2013-11-05 00:42:00,
2013-11-04 16:48:00,46.2,37.5,30.13,NE,45,0.0,1.5,71,0.00,,,0.00,NetBSD+Arduino,2013-11-05 00:48:00,
2013-11-04 16:53:00,46.1,37.9,30.13,NE,45,2.1,3.0,72,0.00,,,0.00,NetBSD+Arduino,2013-11-05 00:53:00,
2013-11-04 16:58:00,46.0,38.4,30.13,NE,45,0.0,1.5,74,0.00,,,0.00,NetBSD+Arduino,2013-11-05 00:58:00,
2013-11-04 17:03:00,45.9,37.6,30.13,NE,45,0.0,1.5,72,0.00,,,0.00,NetBSD+Arduino,2013-11-05 01:03:00,
2013-11-04 17:08:00,45.9,37.6,30.13,NE,45,0.0,1.5,72,0.00,,,0.00,NetBSD+Arduino,2013-11-05 01:08:00,
2013-11-04 17:13:00,45.9,37.9,30.13,East,90,1.2,3.0,73,0.00,,,0.00,NetBSD+Arduino,2013-11-05 01:13:00,
2013-11-04 17:18:00,45.9,37.8,30.13,East,90,0.0,4.5,73,0.00,,,0.00,NetBSD+Arduino,2013-11-05 01:18:00,
2013-11-04 17:23:00,45.8,37.0,30.13,South,180,0.0,3.0,71,0.00,,,0.00,NetBSD+Arduino,2013-11-05 01:23:00,
2013-11-04 17:28:00,45.8,37.0,30.13,East,90,0.0,3.0,71,0.00,,,0.00,NetBSD+Arduino,2013-11-05 01:28:00,
2013-11-04 17:33:00,45.9,36.7,30.13,NE,45,1.5,4.5,70,0.00,,,0.00,NetBSD+Arduino,2013-11-05 01:33:00,
2013-11-04 17:38:00,45.8,36.5,30.13,SW,225,0.5,3.0,69,0.00,,,0.00,NetBSD+Arduino,2013-11-05 01:38:00,
2013-11-04 17:43:00,45.6,36.3,30.13,NE,45,1.0,3.0,69,0.00,,,0.00,NetBSD+Arduino,2013-11-05 01:43:00,
2013-11-04 17:48:00,45.5,36.3,30.13,East,90,1.2,4.5,70,0.00,,,0.00,NetBSD+Arduino,2013-11-05 01:48:00,
2013-11-04 17:53:00,45.4,36.3,30.12,East,90,1.0,4.5,70,0.00,,,0.00,NetBSD+Arduino,2013-11-05 01:53:00,
2013-11-04 17:58:00,45.4,36.4,30.13,East,90,1.5,4.5,70,0.00,,,0.00,NetBSD+Arduino,2013-11-05 01:58:00,
2013-11-04 18:03:00,45.4,36.4,30.12,West,270,0.0,3.0,70,0.00,,,0.00,NetBSD+Arduino,2013-11-05 02:03:00,
2013-11-04 18:08:00,45.4,36.8,30.12,South,180,0.0,1.5,71,0.00,,,0.00,NetBSD+Arduino,2013-11-05 02:08:00,
2013-11-04 18:13:00,45.2,36.7,30.12,East,90,0.0,1.5,71,0.00,,,0.00,NetBSD+Arduino,2013-11-05 02:13:00,
2013-11-04 18:18:00,45.1,36.7,30.12,East,90,0.0,1.5,72,0.00,,,0.00,NetBSD+Arduino,2013-11-05 02:18:00,
2013-11-04 18:23:00,44.9,37.0,30.11,East,90,0.0,3.0,73,0.00,,,0.00,NetBSD+Arduino,2013-11-05 02:23:00,
2013-11-04 18:28:00,44.8,37.2,30.11,East,90,0.5,1.5,74,0.00,,,0.00,NetBSD+Arduino,2013-11-05 02:28:00,
2013-11-04 18:33:00,44.6,37.5,30.11,East,90,0.0,1.5,75,0.00,,,0.00,NetBSD+Arduino,2013-11-05 02:33:00,
2013-11-04 18:38:00,44.5,37.5,30.10,South,180,1.5,3.0,76,0.00,,,0.00,NetBSD+Arduino,2013-11-05 02:38:00,
2013-11-04 18:43:00,44.3,37.5,30.10,East,90,0.0,1.5,77,0.00,,,0.00,NetBSD+Arduino,2013-11-05 02:43:00,
2013-11-04 18:48:00,44.3,37.6,30.10,South,180,0.0,3.0,77,0.00,,,0.00,NetBSD+Arduino,2013-11-05 02:48:00,
2013-11-04 18:53:00,44.5,37.6,30.10,North,0,0.0,0.0,76,0.00,,,0.00,NetBSD+Arduino,2013-11-05 02:53:00,
2013-11-04 18:58:00,44.6,37.9,30.10,SW,225,0.0,0.0,77,0.00,,,0.00,NetBSD+Arduino,2013-11-05 02:58:00,
2013-11-04 19:03:00,44.8,38.1,30.10,SW,225,0.0,0.0,77,0.00,,,0.00,NetBSD+Arduino,2013-11-05 03:03:00,
2013-11-04 19:08:00,44.8,38.3,30.10,East,90,0.0,0.0,78,0.00,,,0.00,NetBSD+Arduino,2013-11-05 03:08:00,
2013-11-04 19:13:00,44.8,38.1,30.10,South,180,1.0,3.0,77,0.00,,,0.00,NetBSD+Arduino,2013-11-05 03:13:00,
2013-11-04 19:18:00,44.9,38.2,30.10,East,90,1.7,4.5,77,0.00,,,0.00,NetBSD+Arduino,2013-11-05 03:18:00,
2013-11-04 19:23:00,45.0,38.6,30.10,East,90,0.0,3.0,78,0.00,,,0.00,NetBSD+Arduino,2013-11-05 03:23:00,
2013-11-04 19:28:00,45.1,38.3,30.10,South,180,1.7,3.0,77,0.00,,,0.00,NetBSD+Arduino,2013-11-05 03:28:00,
2013-11-04 19:33:00,45.1,38.7,30.10,South,180,1.7,3.0,78,0.00,,,0.00,NetBSD+Arduino,2013-11-05 03:33:00,
2013-11-04 19:38:00,45.2,38.8,30.10,East,90,0.0,1.5,78,0.00,,,0.00,NetBSD+Arduino,2013-11-05 03:38:00,
2013-11-04 19:43:00,45.2,38.8,30.10,East,90,0.2,1.5,78,0.00,,,0.00,NetBSD+Arduino,2013-11-05 03:43:00,
2013-11-04 19:48:00,45.2,38.8,30.10,East,90,0.0,1.5,78,0.00,,,0.00,NetBSD+Arduino,2013-11-05 03:48:00,
2013-11-04 19:53:00,45.1,39.0,30.10,East,90,0.0,0.0,78,0.00,,,0.00,NetBSD+Arduino,2013-11-05 03:53:00,
2013-11-04 19:59:00,45.1,39.1,30.10,SE,135,0.0,0.0,79,0.00,,,0.00,NetBSD+Arduino,2013-11-05 03:59:00,
2013-11-04 20:04:00,45.1,39.1,30.09,East,90,0.7,1.5,79,0.00,,,0.00,NetBSD+Arduino,2013-11-05 04:04:00,
2013-11-04 20:09:00,45.1,39.2,30.09,South,180,1.2,1.5,79,0.00,,,0.00,NetBSD+Arduino,2013-11-05 04:09:00,
2013-11-04 20:14:00,45.1,39.8,30.09,South,180,2.1,3.0,81,0.00,,,0.00,NetBSD+Arduino,2013-11-05 04:14:00,
2013-11-04 20:19:00,45.0,39.9,30.09,South,180,2.7,4.5,82,0.00,,,0.00,NetBSD+Arduino,2013-11-05 04:19:00,
2013-11-04 20:24:00,44.9,40.7,30.09,South,180,1.2,4.5,84,0.00,,,0.00,NetBSD+Arduino,2013-11-05 04:24:00,
2013-11-04 20:29:00,44.6,41.1,30.08,East,90,1.2,1.5,87,0.02,,,0.02,NetBSD+Arduino,2013-11-05 04:29:00,
2013-11-04 20:34:00,44.2,41.0,30.08,South,180,0.0,1.5,88,0.02,,,0.02,NetBSD+Arduino,2013-11-05 04:34:00,
2013-11-04 20:39:00,44.0,41.2,30.09,East,90,0.6,1.5,89,0.02,,,0.02,NetBSD+Arduino,2013-11-05 04:39:00,
2013-11-04 20:44:00,43.7,41.3,30.08,South,180,0.0,1.5,91,0.02,,,0.02,NetBSD+Arduino,2013-11-05 04:44:00,
2013-11-04 20:49:00,43.6,41.4,30.08,South,180,0.0,0.0,92,0.02,,,0.02,NetBSD+Arduino,2013-11-05 04:49:00,
2013-11-04 20:54:00,43.5,41.7,30.09,East,90,0.9,3.0,93,0.02,,,0.02,NetBSD+Arduino,2013-11-05 04:54:00,
2013-11-04 20:59:00,43.5,42.0,30.09,East,90,1.2,3.0,94,0.02,,,0.02,NetBSD+Arduino,2013-11-05 04:59:00,
2013-11-04 21:01:00,43.5,42.0,30.09,East,90,0.3,3.0,94,0.02,,,0.02,NetBSD+Arduino,2013-11-05 05:01:00,
2013-11-04 21:02:00,43.5,42.1,30.09,South,180,1.5,3.0,94,0.02,,,0.02,NetBSD+Arduino,2013-11-05 05:02:00,
2013-11-04 21:05:00,43.5,42.2,30.09,South,180,0.9,3.0,95,0.02,,,0.02,NetBSD+Arduino,2013-11-05 05:05:00,
2013-11-04 21:08:00,43.4,42.2,30.09,South,180,0.0,3.0,95,0.02,,,0.02,NetBSD+Arduino,2013-11-05 05:08:00,
2013-11-04 21:10:00,43.3,42.1,30.09,South,180,1.0,1.5,95,0.02,,,0.02,NetBSD+Arduino,2013-11-05 05:10:00,
2013-11-04 21:15:00,43.3,42.1,30.09,East,90,2.7,3.0,95,0.02,,,0.02,NetBSD+Arduino,2013-11-05 05:15:00,
2013-11-04 21:20:00,43.3,42.1,30.09,South,180,1.2,3.0,95,0.02,,,0.02,NetBSD+Arduino,2013-11-05 05:20:00,
2013-11-04 21:25:00,43.3,41.9,30.09,East,90,1.5,3.0,94,0.00,,,0.02,NetBSD+Arduino,2013-11-05 05:25:00,
2013-11-04 21:30:00,43.2,41.8,30.08,SE,135,0.9,3.0,94,0.00,,,0.02,NetBSD+Arduino,2013-11-05 05:30:00,
2013-11-04 21:35:00,43.1,41.6,30.09,South,180,0.6,3.0,94,0.00,,,0.02,NetBSD+Arduino,2013-11-05 05:35:00,
2013-11-04 21:41:00,43.0,41.5,30.09,SE,135,0.6,3.0,94,0.00,,,0.02,NetBSD+Arduino,2013-11-05 05:41:00,
2013-11-04 21:46:00,43.0,41.5,30.08,South,180,1.5,3.0,94,0.00,,,0.02,NetBSD+Arduino,2013-11-05 05:46:00,
2013-11-04 21:51:00,42.9,41.3,30.08,South,180,0.3,3.0,94,0.00,,,0.02,NetBSD+Arduino,2013-11-05 05:51:00,
2013-11-04 21:56:00,43.0,41.7,30.07,South,180,0.2,3.0,94,0.00,,,0.02,NetBSD+Arduino,2013-11-05 05:56:00,
2013-11-04 22:01:00,43.0,41.8,30.07,South,180,1.0,3.0,95,0.00,,,0.02,NetBSD+Arduino,2013-11-05 06:01:00,
2013-11-04 22:06:00,43.0,41.8,30.07,East,90,1.2,4.5,95,0.00,,,0.02,NetBSD+Arduino,2013-11-05 06:06:00,
2013-11-04 22:11:00,43.0,41.8,30.07,South,180,0.0,3.0,95,0.00,,,0.02,NetBSD+Arduino,2013-11-05 06:11:00,
2013-11-04 22:16:00,43.0,41.6,30.07,East,90,0.0,3.0,94,0.00,,,0.02,NetBSD+Arduino,2013-11-05 06:16:00,
2013-11-04 22:21:00,42.9,41.2,30.07,South,180,1.2,4.5,93,0.00,,,0.02,NetBSD+Arduino,2013-11-05 06:21:00,
2013-11-04 22:26:00,42.9,41.4,30.07,East,90,0.0,3.0,94,0.00,,,0.02,NetBSD+Arduino,2013-11-05 06:26:00,
2013-11-04 22:31:00,42.9,41.7,30.07,East,90,1.5,3.0,95,0.00,,,0.02,NetBSD+Arduino,2013-11-05 06:31:00,
2013-11-04 22:37:00,42.8,41.8,30.07,South,180,0.0,3.0,95,0.00,,,0.02,NetBSD+Arduino,2013-11-05 06:37:00,
2013-11-04 22:42:00,42.8,41.6,30.06,South,180,0.5,3.0,95,0.00,,,0.02,NetBSD+Arduino,2013-11-05 06:42:00,
2013-11-04 22:47:00,42.7,41.4,30.06,South,180,1.5,1.5,95,0.00,,,0.02,NetBSD+Arduino,2013-11-05 06:47:00,
2013-11-04 22:52:00,42.6,41.5,30.06,East,90,1.5,3.0,95,0.00,,,0.02,NetBSD+Arduino,2013-11-05 06:52:00,
2013-11-04 22:57:00,42.6,41.3,30.06,NW,314,0.0,3.0,95,0.00,,,0.02,NetBSD+Arduino,2013-11-05 06:57:00,
2013-11-04 23:02:00,42.7,41.6,30.06,East,90,0.0,3.0,95,0.00,,,0.02,NetBSD+Arduino,2013-11-05 07:02:00,
2013-11-04 23:07:00,42.8,41.6,30.06,South,180,0.0,1.5,95,0.00,,,0.02,NetBSD+Arduino,2013-11-05 07:07:00,
2013-11-04 23:13:00,42.8,41.7,30.06,East,90,1.2,3.0,95,0.00,,,0.02,NetBSD+Arduino,2013-11-05 07:13:00,
2013-11-04 23:18:00,42.8,41.7,30.06,East,90,0.0,1.5,95,0.00,,,0.02,NetBSD+Arduino,2013-11-05 07:18:00,
2013-11-04 23:23:00,42.8,41.9,30.05,East,90,0.6,3.0,96,0.00,,,0.02,NetBSD+Arduino,2013-11-05 07:23:00,
2013-11-04 23:28:00,42.8,42.0,30.05,East,90,1.2,3.0,96,0.00,,,0.02,NetBSD+Arduino,2013-11-05 07:28:00,
2013-11-04 23:33:00,42.8,41.9,30.05,East,90,1.2,3.0,96,0.00,,,0.02,NetBSD+Arduino,2013-11-05 07:33:00,
2013-11-04 23:38:00,42.8,41.9,30.04,East,90,1.7,4.5,96,0.00,,,0.02,NetBSD+Arduino,2013-11-05 07:38:00,
2013-11-04 23:43:00,42.8,41.9,30.05,East,90,1.0,4.5,96,0.00,,,0.02,NetBSD+Arduino,2013-11-05 07:43:00,
2013-11-04 23:48:00,42.8,42.1,30.04,East,90,0.0,3.0,97,0.00,,,0.02,NetBSD+Arduino,2013-11-05 07:48:00,
2013-11-04 23:53:00,42.8,42.1,30.05,East,90,0.9,3.0,97,0.00,,,0.02,NetBSD+Arduino,2013-11-05 07:53:00,
2013-11-04 23:58:00,42.8,42.1,30.04,South,180,1.2,4.5,97,0.00,,,0.02,NetBSD+Arduino,2013-11-05 07:58:00,